Stations météo

réclame
Mon MeteoGroup
Bale-Mulhouse, France (7299): Température de l'air & dewpoint: 17.09.2017 21:00:00 - 23.09.2017 21:00:00 (CEST)Bale-Mulhouse, France (7299): Température de l'air 5cm: 17.09.2017 21:00:00 - 23.09.2017 21:00:00 (CEST)Bale-Mulhouse, France (7299): Température de l'air -20cm & Température de l'air -100cm: 17.09.2017 21:00:00 - 23.09.2017 21:00:00 (CEST)Bale-Mulhouse, France (7299): Vitesse du vent & gusts: 17.09.2017 21:00:00 - 23.09.2017 21:00:00 (CEST)Bale-Mulhouse, France (7299): Direction du vent: 17.09.2017 21:00:00 - 23.09.2017 21:00:00 (CEST)Bale-Mulhouse, France (7299): reduced air pressure: 17.09.2017 21:00:00 - 23.09.2017 21:00:00 (CEST)Bale-Mulhouse, France (7299): visibility: 17.09.2017 21:00:00 - 23.09.2017 21:00:00 (CEST)Bale-Mulhouse, France (7299): Ensoleillement: 17.09.2017 21:00:00 - 23.09.2017 21:00:00 (CEST)Bale-Mulhouse, France (7299): Quantités de précipitations: 17.09.2017 21:00:00 - 23.09.2017 21:00:00 (CEST)
Date & Time tt [°C] td [°C] tt 5cm [°C] tt -20cm [°C] tt -100cm [°C] ff [km/h] ff [knt] fx [km/h] fx [knt] dd ppp [hPa] vv [km] sd [min] rr [mm]
23.09.2017 21:00:00 15,5 10,5 14,3 17,2 17,5 7 4 15 8 NW 1020,4 28 0 0,0
23.09.2017 20:00:00 16,0 11,2 14,3 17,2 17,5 10 5 13 7 NW 1020,0 28 0 0,0
23.09.2017 19:00:00 17,6 10,9 16,1 17,0 17,5 5 3 16 8 NNW 1019,7 40 0 0,0
23.09.2017 18:00:00 19,9 9,7 19,4 16,8 17,5 8 5 22 12 N 1019,5 40 29 0,0
23.09.2017 17:00:00 22,2 9,0 23,7 16,5 17,4 4 2 16 9 NNW 1019,0 40 56 0,0
23.09.2017 16:00:00 21,2 9,1 23,5 16,1 17,5 6 3 20 11 NNW 1019,6 40 49 0,0
23.09.2017 15:00:00 21,3 9,5 24,6 15,7 17,5 6 3 19 10 NNW 1020,0 40 60 0,0
23.09.2017 14:00:00 20,5 10,0 22,9 15,4 17,5 7 4 27 14 NE 1020,6 35 60 0,0
23.09.2017 13:00:00 18,8 10,4 22,0 15,1 17,5 8 4 14 8 NNW 1021,3 30 60 0,0
23.09.2017 12:00:00 17,6 10,7 22,9 15,0 17,5 6 4 16 9 NNE 1022,2 30 60 0,0
23.09.2017 11:00:00 16,1 10,4 20,2 14,9 17,5 3 2 9 5 ENE 1022,8 25 60 0,0
23.09.2017 10:00:00 13,4 10,7 14,8 14,9 17,5 2 1 7 4 W 1023,2 18 57 0,0
23.09.2017 09:00:00 10,0 9,7 6,9 15,1 17,5 0 0 7 4 N 1023,5 13 52 0,0
23.09.2017 08:00:00 7,5 7,1 5,2 15,2 17,5 3 1 6 4 SW 1023,5 11 1 0,0
23.09.2017 07:00:00 6,8 6,2 4,9 15,4 17,5 6 3 10 5 S 1023,6 10 0 0,2
23.09.2017 06:00:00 7,7 7,3 5,2 15,6 17,5 0 0 8 5 N 1023,5 15 0 0,0
23.09.2017 05:00:00 7,4 6,8 5,3 15,7 17,5 4 2 6 3 SSW 1023,6 25 0 0,0
23.09.2017 04:00:00 7,1 6,5 5,1 15,9 17,5 2 1 4 2 WSW 1023,9 7 0 0,0
23.09.2017 03:00:00 7,2 6,3 5,4 16,1 17,5 2 1 6 3 WSW 1023,9 4,3 0 0,0
23.09.2017 02:00:00 8,2 7,3 6,1 16,3 17,5 2 1 6 3 S 1023,8 14 0 0,0
23.09.2017 01:00:00 9,2 8,4 6,9 16,5 17,6 2 1 4 2 SSW 1023,5 20 0 0,0
23.09.2017 00:00:00 9,8 8,2 7,7 16,6 17,6 3 2 8 4 SSW 1023,3 30 0 0,0
22.09.2017 23:00:00 10,9 9,0 8,6 16,7 17,5 4 2 6 3 S 1023,0 30 0 0,0
22.09.2017 22:00:00 12,2 9,6 9,8 16,8 17,6 3 1 11 6 SW 1022,4 40 0 0,0
22.09.2017 21:00:00 15,0 10,0 12,0 16,8 17,6 6 4 10 6 S 1021,7 45 0 0,0
22.09.2017 20:00:00 16,3 10,4 13,6 16,8 17,6 6 3 8 5 SSE 1021,0 45 4 0,0
22.09.2017 19:00:00 19,6 9,5 18,5 16,6 17,6 3 2 14 8 SW 1020,1 45 14 0,0
22.09.2017 18:00:00 20,6 7,9 20,6 16,4 17,6 10 6 20 11 W 1019,9 40 20 0,0
22.09.2017 17:00:00 21,6 7,8 23,0 16,1 17,6 10 6 21 11 W 1019,7 40 21 0,0
22.09.2017 16:00:00 21,4 8,6 23,4 15,6 17,6 10 5 23 12 WNW 1019,7 40 46 0,0
22.09.2017 15:00:00 20,7 8,0 21,7 15,3 17,7 13 7 23 12 WSW 1020,0 40 52 0,0
22.09.2017 14:00:00 21,2 8,8 22,5 14,8 17,6 10 5 21 11 W 1020,1 40 60 0,0
22.09.2017 13:00:00 19,6 10,3 21,5 14,6 17,6 5 3 13 7 S 1020,4 40 60 0,0
22.09.2017 12:00:00 17,1 9,5 18,5 14,4 17,6 5 3 16 9 SE 1020,9 35 60 0,0
22.09.2017 11:00:00 15,3 9,0 15,3 14,3 17,6 9 5 18 10 ESE 1021,4 35 60 0,0
22.09.2017 10:00:00 12,4 9,0 11,0 14,3 17,6 9 5 14 8 SSE 1021,8 28 40 0,0
22.09.2017 09:00:00 9,7 8,3 7,7 14,5 17,7 8 5 15 8 S 1021,8 28 33 0,0
22.09.2017 08:00:00 7,7 6,9 5,3 14,6 17,7 8 4 13 7 S 1021,7 20 20 0,0
22.09.2017 07:00:00 6,8 6,1 4,6 14,8 17,7 10 5 14 7 S 1021,3 15 0 0,0
22.09.2017 06:00:00 6,2 5,6 3,4 15,0 17,7 6 3 10 6 S 1021,2 17 0 0,0
22.09.2017 05:00:00 5,8 5,2 2,9 15,2 17,7 3 2 8 4 SSE 1021,2 16 0 0,0
22.09.2017 04:00:00 5,8 5,4 2,9 15,4 17,7 0 0 8 4 N 1021,0 18 0 0,0
22.09.2017 03:00:00 6,0 5,4 3,5 15,6 17,7 4 2 5 3 SSE 1021,4 14 0 0,0
22.09.2017 02:00:00 6,3 5,9 3,7 15,7 17,7 2 1 4 2 SW 1021,5 10 0 0,0
22.09.2017 01:00:00 6,5 5,6 4,6 16,0 17,7 0 0 5 3 N 1021,2 14 0 0,2
22.09.2017 00:00:00 7,3 6,4 5,3 16,1 17,7 3 2 9 5 S 1020,9 20 0 0,0
21.09.2017 23:00:00 7,9 6,5 6,2 16,3 17,7 5 3 6 4 SW 1020,7 30 0 0,0
21.09.2017 22:00:00 9,5 8,3 7,4 16,4 17,7 3 2 7 4 SW 1020,4 30 0 0,0
21.09.2017 21:00:00 10,9 8,3 9,1 16,4 17,7 2 1 8 4 W 1020,0 50 0 0,0
21.09.2017 20:00:00 14,5 8,4 11,6 16,4 17,8 5 3 15 8 N 1019,1 50 8 0,0
21.09.2017 19:00:00 18,0 8,3 18,8 16,2 17,7 9 5 17 9 NE 1018,3 50 60 0,0
21.09.2017 18:00:00 19,7 5,7 21,0 16,0 17,7 10 6 20 11 E 1018,1 40 60 0,0
21.09.2017 17:00:00 19,8 5,8 21,6 15,7 17,7 10 5 22 12 E 1018,1 40 60 0,0
21.09.2017 16:00:00 19,9 6,6 22,4 15,3 17,8 12 6 27 14 ESE 1018,4 40 60 0,0
21.09.2017 15:00:00 19,3 5,4 21,8 15,0 17,8 11 6 31 17 SE 1018,9 40 60 0,0
21.09.2017 14:00:00 18,6 6,1 20,0 14,6 17,7 11 6 27 15 E 1019,4 30 60 0,0
21.09.2017 13:00:00 17,5 6,1 19,7 14,4 17,8 14 8 26 14 ESE 1020,0 30 60 0,0
21.09.2017 12:00:00 15,8 7,0 18,8 14,2 17,8 11 6 23 12 E 1020,9 30 60 0,0
21.09.2017 11:00:00 13,2 8,3 16,1 14,2 17,8 7 4 24 13 E 1021,7 20 60 0,0
21.09.2017 10:00:00 10,6 8,9 13,1 14,2 17,8 4 2 9 5 E 1022,3 10 60 0,0
21.09.2017 09:00:00 7,1 7,0 4,0 14,4 17,8 3 1 5 3 W 1022,5 8 60 0,0
21.09.2017 08:00:00 3,5 3,2 1,1 14,6 17,8 3 1 6 4 SE 1023,0 2,0 22 0,0
21.09.2017 07:00:00 3,6 3,2 1,7 14,8 17,8 4 2 6 3 SW 1023,2 0,5 0 0,0
21.09.2017 06:00:00 4,4 4,1 1,7 15,0 17,8 0 0 5 3 N 1023,0 1,8 0 0,0
21.09.2017 05:00:00 3,9 3,6 1,7 15,3 17,8 3 1 8 4 SSW 1023,1 1,0 0 0,0
21.09.2017 04:00:00 3,8 3,5 2,6 15,5 17,8 4 2 5 3 W 1023,5 1,1 0 0,0
21.09.2017 03:00:00 4,0 3,4 2,3 15,7 17,8 3 2 5 3 WNW 1023,4 0,6 0 0,0
21.09.2017 02:00:00 4,9 4,5 3,2 15,9 17,8 3 2 5 3 WSW 1023,6 0,3 0 0,0
21.09.2017 01:00:00 5,3 4,7 3,6 16,1 17,8 4 2 6 4 W 1023,6 0,6 0 0,0
21.09.2017 00:00:00 6,3 5,4 4,3 16,4 17,9 2 1 6 4 S 1023,5 8 0 0,0
20.09.2017 23:00:00 6,8 5,6 4,7 16,5 17,9 6 3 7 4 WSW 1023,4 11 0 0,0
20.09.2017 22:00:00 7,5 6,4 5,4 16,7 17,8 5 3 9 5 SW 1023,1 18 0 0,0
20.09.2017 21:00:00 8,6 7,2 6,6 16,9 17,9 4 2 8 4 W 1023,0 17 0 0,0
20.09.2017 20:00:00 10,9 8,3 8,8 16,9 17,9 4 2 10 5 NW 1022,5 25 0 0,0
20.09.2017 19:00:00 13,7 9,1 12,5 16,9 17,9 8 4 16 9 W 1021,8 40 25 0,0
20.09.2017 18:00:00 16,2 7,7 16,6 16,8 17,9 11 6 19 11 NW 1021,4 40 25 0,0
20.09.2017 17:00:00 16,2 7,1 16,7 16,5 17,9 10 6 22 12 NNW 1021,6 42 11 0,0
20.09.2017 16:00:00 18,0 5,9 20,4 16,1 17,9 8 4 24 13 WNW 1021,4 27 55 0,0
20.09.2017 15:00:00 17,7 5,3 18,3 15,8 17,9 9 5 23 12 N 1021,8 40 55 0,0
20.09.2017 14:00:00 17,0 7,3 17,2 15,5 17,9 4 2 18 10 NW 1022,4 40 43 0,0
20.09.2017 13:00:00 16,2 6,6 16,6 15,3 17,9 5 3 19 10 NE 1022,8 40 47 0,0
20.09.2017 12:00:00 15,4 7,7 19,7 15,1 17,9 5 3 11 6 SW 1023,2 30 60 0,0
20.09.2017 11:00:00 13,2 8,9 13,0 15,1 17,9 6 3 18 10 NNE 1023,7 30 32 0,0
20.09.2017 10:00:00 11,8 9,0 13,1 15,1 17,9 10 6 18 10 NW 1023,9 25 21 0,0
20.09.2017 09:00:00 11,6 9,5 9,2 15,2 17,9 6 4 17 9 S 1023,4 20 60 0,0
20.09.2017 08:00:00 9,5 8,6 8,1 15,3 18,0 4 2 6 4 ESE 1023,7 15 5 0,0
20.09.2017 07:00:00 9,9 8,5 9,4 15,4 18,0 4 2 8 5 NNW 1023,5 20 0 0,0
20.09.2017 06:00:00 10,1 8,7 9,5 15,5 17,9 3 2 9 5 NW 1023,2 20 0 0,0
20.09.2017 05:00:00 10,3 9,1 9,7 15,6 18,0 5 3 11 6 NNW 1022,9 20 0 0,0
20.09.2017 04:00:00 10,4 9,3 9,8 15,7 18,0 2 1 10 5 SE 1022,7 30 0 0,0
20.09.2017 03:00:00 10,3 9,1 9,7 15,8 18,0 2 1 9 5 SE 1022,7 31 0 0,0
20.09.2017 02:00:00 10,5 9,1 10,0 15,9 18,0 3 1 18 10 E 1022,7 34 0 0,0
20.09.2017 01:00:00 10,5 9,1 10,0 16,0 18,0 10 6 18 10 WSW 1022,6 34 0 0,0
20.09.2017 00:00:00 10,8 9,2 10,3 16,1 18,0 5 3 13 7 WSW 1022,7 20 0 0,2
19.09.2017 23:00:00 11,0 9,4 10,3 16,2 18,0 4 2 23 12 ENE 1022,5 20 0 0,0
19.09.2017 22:00:00 10,9 9,3 9,9 16,3 18,0 5 3 15 8 SW 1022,1 20 0 0,0
19.09.2017 21:00:00 11,0 9,4 9,9 16,4 18,0 7 4 18 10 WSW 1021,9 20 0 0,0
19.09.2017 20:00:00 10,5 9,3 9,3 16,5 18,0 5 3 9 5 WSW 1021,3 20 0 0,0
19.09.2017 19:00:00 11,3 9,9 10,5 16,5 18,0 4 2 5 3 ESE 1020,5 15 0 0,0
19.09.2017 18:00:00 11,0 8,7 10,1 16,4 18,1 3 2 28 15 WSW 1020,2 15 0 1,4
19.09.2017 17:00:00 12,0 8,8 11,2 16,2 18,0 25 14 36 20 N 1019,6 10 13 0,0
19.09.2017 16:00:00 15,4 7,7 14,5 16,0 18,1 15 8 24 13 WSW 1018,4 18 34 0,0
19.09.2017 15:00:00 14,0 8,4 14,7 15,7 18,1 16 9 24 13 W 1018,8 15 36 0,0
19.09.2017 14:00:00 12,9 9,3 9,3 15,6 18,1 8 4 27 15 WSW 1018,9 15 10 2,0
19.09.2017 13:00:00 11,3 8,3 10,3 15,3 18,1 19 11 33 18 NNW 1019,2 5 3 0,2
19.09.2017 12:00:00 14,6 9,2 14,5 15,2 18,1 11 6 25 14 WSW 1018,8 44 26 0,0
19.09.2017 11:00:00 12,5 8,0 13,1 15,1 18,1 9 5 24 13 W 1019,2 43 19 0,0
19.09.2017 10:00:00 11,1 7,8 9,9 15,1 18,1 7 4 16 9 WSW 1019,2 54 0 0,0
19.09.2017 09:00:00 10,0 7,9 9,1 15,2 18,1 9 5 19 10 WSW 1019,3 17 0 0,2
19.09.2017 08:00:00 9,8 7,9 9,0 15,3 18,1 0 0 9 5 N 1019,1 17 0 0,0
19.09.2017 07:00:00 9,7 8,1 9,0 15,4 18,1 5 3 26 14 S 1018,9 18 0 0,4
19.09.2017 06:00:00 9,9 7,7 9,2 15,5 18,1 16 9 29 15 WSW 1018,6 28 0 0,0
19.09.2017 05:00:00 9,4 8,0 8,8 15,6 18,2 5 3 10 6 W 1018,8 28 0 0,0
19.09.2017 04:00:00 9,9 8,7 9,2 15,7 18,2 5 3 7 4 E 1018,6 43 0 0,0
19.09.2017 03:00:00 10,2 8,3 9,5 15,7 18,1 2 1 7 4 SSE 1018,9 43 0 0,0
19.09.2017 02:00:00 10,2 8,1 9,6 15,9 18,2 3 1 9 5 SSE 1019,0 52 0 0,0
19.09.2017 01:00:00 10,7 7,8 9,9 16,0 18,2 5 3 9 5 SE 1019,2 60 0 0,0
19.09.2017 00:00:00 10,8 8,2 10,3 16,1 18,2 4 2 10 6 E 1019,4 60 0 0,0
18.09.2017 23:00:00 10,8 8,2 10,1 16,2 18,2 6 3 12 6 SW 1019,2 60 0 0,0
18.09.2017 22:00:00 10,9 8,1 10,1 16,3 18,2 9 5 16 9 WSW 1019,1 60 0 0,0
18.09.2017 21:00:00 10,4 7,5 8,1 16,5 18,2 10 5 13 7 SW 1018,9 60 0 0,0
18.09.2017 20:00:00 10,1 6,6 8,5 16,5 18,2 10 5 13 7 WSW 1018,4 60 0 0,0
18.09.2017 19:00:00 12,8 7,2 11,7 16,5 18,2 7 4 24 13 W 1017,5 60 35 0,0
18.09.2017 18:00:00 14,8 7,6 14,3 16,4 18,3 9 5 21 11 W 1017,1 60 22 0,0
18.09.2017 17:00:00 15,5 6,8 16,0 16,2 18,3 11 6 22 12 NW 1016,9 60 36 0,0
18.09.2017 16:00:00 14,8 5,8 17,2 15,9 18,3 15 8 27 15 W 1017,3 60 21 0,0
18.09.2017 15:00:00 14,6 7,4 16,7 15,7 18,3 9 5 21 11 WNW 1017,5 60 0 0,0
18.09.2017 14:00:00 14,1 6,7 16,0 15,5 18,3 12 7 22 12 W 1017,8 60 1 0,0
18.09.2017 13:00:00 13,6 7,4 15,0 15,3 18,3 8 4 16 9 WSW 1018,0 60 0 0,0
18.09.2017 12:00:00 12,8 7,2 15,2 15,1 18,3 7 4 22 12 W 1018,1 50 1 0,0
18.09.2017 11:00:00 12,5 8,6 12,4 15,0 18,3 12 7 22 12 W 1018,4 50 17 0,0
18.09.2017 10:00:00 11,1 8,5 10,7 15,0 18,3 3 2 11 6 S 1018,8 40 0 0,0
18.09.2017 09:00:00 10,0 7,9 9,1 15,1 18,3 3 2 9 5 W 1018,4 40 0 0,0
18.09.2017 08:00:00 9,3 8,1 8,8 15,2 18,4 4 2 20 11 WSW 1018,2 20 0 0,0
18.09.2017 07:00:00 9,3 8,1 8,8 15,2 18,4 9 5 16 8 SW 1017,8 5 0 0,0
18.09.2017 06:00:00 9,2 8,0 8,7 15,3 18,4 5 3 13 7 SSW 1017,5 40 0 0,0
18.09.2017 05:00:00 9,3 7,9 8,7 15,4 18,4 4 2 14 7 SSW 1017,4 15 0 0,0
18.09.2017 04:00:00 9,3 8,2 8,7 15,5 18,4 5 3 11 6 SSW 1017,2 60 0 0,0
18.09.2017 03:00:00 9,1 8,3 7,8 15,6 18,4 5 3 9 5 S 1017,1 40 0 0,0
18.09.2017 02:00:00 8,9 8,0 7,8 15,8 18,4 6 4 13 7 SSE 1016,9 53 0 0,2
18.09.2017 01:00:00 9,5 8,7 9,3 15,9 18,4 5 3 11 6 SE 1016,9 13 0 1,2
18.09.2017 00:00:00 9,8 9,0 9,4 16,0 18,5 5 3 16 9 WSW 1017,1 2,8 0 2,2
17.09.2017 23:00:00 10,0 9,1 9,6 16,1 18,4 4 2 16 8 S 1016,5 20 0 0,2
17.09.2017 22:00:00 10,0 9,2 9,4 16,2 18,5 10 6 27 15 ESE 1016,2 20 0 0,4
17.09.2017 21:00:00 9,9 8,7 9,5 16,3 18,5 6 4 10 5 SSE 1016,3 20 0 1,4

tt = Température de l'air
td = dewpoint
tt 5cm = Température de l'air 5cm
tt -20cm = Température de l'air -20cm
tt -100cm = Température de l'air -100cm
ff = Vitesse du vent
fx = gusts
dd = Direction du vent
ppp = reduced air pressure
vv = visibility
sd = Ensoleillement
rr = Quantités de précipitations

stations d'obs. à proximité